| time (UTC) | temp F | wind direction | speed MPH | gust MPH | rain 1hr in | rain 24hr in | rain mn in | humidity % | barometer mb |
| 20260508141518 | 54 | 329 | 2.0 | 3.0 | 0.00 | 0.00 | 0.00 | 75 | 991.1 |
| 20260508140936 | 53 | 328 | 0.0 | 1.0 | 0.00 | 0.00 | 0.00 | 78 | 991.1 |
| 20260508135748 | 51 | 177 | 1.0 | 2.0 | 0.00 | 0.00 | 0.00 | 82 | 991.5 |
| 20260508135146 | 50 | 309 | 0.0 | 0.0 | 0.00 | 0.00 | 0.00 | 83 | 991.5 |
| 20260508134522 | 50 | 309 | 0.0 | 1.0 | 0.00 | 0.00 | 0.00 | 84 | 991.5 |
| 20260508133916 | 49 | 309 | 0.0 | 1.0 | 0.00 | 0.00 | 0.00 | 87 | 991.5 |
| 20260508133312 | 48 | 309 | 1.0 | 2.0 | 0.00 | 0.00 | 0.00 | 87 | 991.5 |
| 20260508132726 | 48 | 309 | 0.0 | 0.0 | 0.00 | 0.00 | 0.00 | 88 | 991.5 |
| 20260508132122 | 47 | 309 | 1.0 | 1.0 | 0.00 | 0.00 | 0.00 | 88 | 991.5 |
| 20260508130308 | 45 | 309 | 1.0 | 1.0 | 0.00 | 0.00 | 0.00 | 89 | 991.8 |
| 20260508125126 | 44 | 309 | 0.0 | 0.0 | 0.00 | 0.00 | 0.00 | 91 | 991.8 |
| 20260508123936 | 43 | 309 | 0.0 | 0.0 | 0.00 | 0.00 | 0.00 | 94 | 992.2 |
| 20260508123350 | 42 | 309 | 1.0 | 3.0 | 0.00 | 0.00 | 0.00 | 93 | 992.2 |
| 20260508122731 | 42 | 319 | 2.0 | 2.0 | 0.00 | 0.00 | 0.00 | 94 | 991.8 |
| 20260508122120 | 41 | 314 | 0.0 | 5.0 | 0.00 | 0.00 | 0.00 | 94 | 992.2 |
| 20260508121538 | 41 | 323 | 3.0 | 6.0 | 0.00 | 0.00 | 0.00 | 93 | 992.2 |
| 20260508120920 | 41 | 311 | 2.0 | 5.0 | 0.00 | 0.00 | 0.00 | 94 | 991.8 |
| 20260508115710 | 40 | 318 | 1.0 | 3.0 | 0.00 | 0.00 | 0.00 | 95 | 992.2 |
| 20260508115148 | 40 | 313 | 0.0 | 3.0 | 0.00 | 0.00 | 0.00 | 95 | 991.8 |
| 20260508114519 | 40 | 310 | 1.0 | 3.0 | 0.00 | 0.00 | 0.00 | 95 | 991.8 |
| 20260508113930 | 40 | 322 | 1.0 | 4.0 | 0.00 | 0.00 | 0.00 | 95 | 991.8 |
| 20260508113316 | 40 | 321 | 1.0 | 3.0 | 0.00 | 0.00 | 0.00 | 95 | 991.8 |
| 20260508112719 | 40 | 313 | 0.0 | 5.0 | 0.00 | 0.00 | 0.00 | 95 | 991.5 |
| 20260508112143 | 40 | 337 | 3.0 | 3.0 | 0.00 | 0.00 | 0.00 | 95 | 991.5 |
| 20260508111542 | 40 | 311 | 1.0 | 3.0 | 0.00 | 0.00 | 0.00 | 95 | 991.5 |
| 20260508110922 | 40 | 329 | 3.0 | 4.0 | 0.00 | 0.00 | 0.00 | 95 | 991.5 |
| 20260508110326 | 40 | 322 | 1.0 | 4.0 | 0.00 | 0.00 | 0.00 | 95 | 991.5 |
| 20260508105142 | 40 | 318 | 1.0 | 3.0 | 0.00 | 0.00 | 0.00 | 95 | 991.1 |
| 20260508103936 | 40 | 316 | 3.0 | 6.0 | 0.00 | 0.00 | 0.00 | 95 | 991.1 |
| 20260508103338 | 40 | 310 | 0.0 | 5.0 | 0.00 | 0.00 | 0.00 | 95 | 991.1 |
| 20260508102715 | 40 | 313 | 0.0 | 4.0 | 0.00 | 0.00 | 0.00 | 95 | 991.1 |
| 20260508102115 | 40 | 314 | 0.0 | 3.0 | 0.00 | 0.00 | 0.00 | 95 | 991.1 |
| 20260508101512 | 40 | 316 | 2.0 | 2.0 | 0.00 | 0.00 | 0.00 | 95 | 991.1 |
| 20260508100938 | 40 | 321 | 1.0 | 4.0 | 0.00 | 0.00 | 0.00 | 95 | 991.1 |
| 20260508100331 | 40 | 342 | 0.0 | 4.0 | 0.00 | 0.00 | 0.00 | 95 | 991.1 |
| 20260508095748 | 40 | 345 | 3.0 | 3.0 | 0.00 | 0.00 | 0.00 | 95 | 991.1 |
| 20260508095130 | 40 | 343 | 2.0 | 4.0 | 0.00 | 0.00 | 0.00 | 95 | 990.8 |
| 20260508094522 | 40 | 326 | 4.0 | 4.0 | 0.00 | 0.00 | 0.00 | 95 | 990.8 |
| 20260508093943 | 40 | 338 | 1.0 | 4.0 | 0.00 | 0.00 | 0.00 | 95 | 990.8 |
| 20260508092722 | 40 | 320 | 2.0 | 3.0 | 0.00 | 0.00 | 0.00 | 95 | 990.8 |
| 20260508092142 | 40 | 321 | 0.0 | 2.0 | 0.00 | 0.00 | 0.00 | 95 | 990.8 |
| 20260508091528 | 40 | 319 | 0.0 | 2.0 | 0.00 | 0.00 | 0.00 | 95 | 990.8 |
| 20260508090932 | 40 | 312 | 0.0 | 3.0 | 0.00 | 0.00 | 0.00 | 95 | 990.8 |
| 20260508085139 | 40 | 316 | 0.0 | 3.0 | 0.00 | 0.00 | 0.00 | 95 | 990.5 |
| 20260508084547 | 40 | 315 | 1.0 | 3.0 | 0.00 | 0.00 | 0.00 | 95 | 990.5 |
| 20260508083912 | 40 | 307 | 4.0 | 4.0 | 0.00 | 0.00 | 0.00 | 95 | 990.5 |
| 20260508083313 | 40 | 315 | 0.0 | 2.0 | 0.00 | 0.00 | 0.00 | 96 | 990.5 |
| 20260508082735 | 40 | 315 | 0.0 | 2.0 | 0.00 | 0.00 | 0.00 | 96 | 990.5 |
| 20260508082150 | 40 | 315 | 0.0 | 0.0 | 0.00 | 0.00 | 0.00 | 96 | 990.5 |
| 20260508081537 | 40 | 315 | 0.0 | 0.0 | 0.00 | 0.00 | 0.00 | 95 | 990.5 |
| 20260508080328 | 40 | 315 | 0.0 | 0.0 | 0.00 | 0.00 | 0.00 | 95 | 990.5 |
| 20260508075731 | 40 | 315 | 0.0 | 0.0 | 0.00 | 0.00 | 0.00 | 95 | 990.5 |
| 20260508075120 | 40 | 227 | 0.0 | 0.0 | 0.00 | 0.00 | 0.00 | 95 | 990.5 |
| 20260508074529 | 40 | 227 | 0.0 | 0.0 | 0.00 | 0.00 | 0.00 | 96 | 990.5 |
| 20260508073327 | 40 | 225 | 0.0 | 0.0 | 0.00 | 0.00 | 0.00 | 95 | 990.5 |
| 20260508072733 | 40 | 225 | 0.0 | 0.0 | 0.00 | 0.00 | 0.00 | 95 | 990.5 |
| 20260508072115 | 40 | 225 | 0.0 | 0.0 | 0.00 | 0.00 | 0.00 | 95 | 990.1 |
| 20260508071537 | 40 | 225 | 0.0 | 0.0 | 0.00 | 0.00 | 0.00 | 95 | 990.1 |
| 20260508070951 | 39 | 225 | 0.0 | 0.0 | 0.00 | 0.00 | 0.00 | 95 | 990.1 |
| 20260508070338 | 39 | 225 | 0.0 | 0.0 | 0.00 | 0.00 | 0.00 | 95 | 990.1 |
| 20260508065738 | 39 | 225 | 0.0 | 0.0 | 0.00 | 0.00 | 0.00 | 95 | 990.1 |
| 20260508065133 | 39 | 225 | 0.0 | 0.0 | 0.00 | 0.00 | 0.00 | 95 | 990.1 |
| 20260508064520 | 39 | 225 | 0.0 | 0.0 | 0.00 | 0.00 | 0.00 | 95 | 990.1 |
| 20260508063925 | 40 | 225 | 0.0 | 0.0 | 0.00 | 0.00 | 0.00 | 95 | 990.1 |
| 20260508063318 | 40 | 225 | 0.0 | 0.0 | 0.00 | 0.00 | 0.00 | 95 | 990.1 |
| 20260508062742 | 40 | 225 | 0.0 | 0.0 | 0.00 | 0.00 | 0.00 | 95 | 990.1 |
| 20260508062146 | 40 | 225 | 0.0 | 0.0 | 0.00 | 0.00 | 0.00 | 95 | 990.5 |
| 20260508061530 | 40 | 225 | 0.0 | 0.0 | 0.00 | 0.00 | 0.00 | 95 | 990.5 |
| 20260508060909 | 40 | 225 | 0.0 | 0.0 | 0.00 | 0.00 | 0.00 | 95 | 990.5 |
| 20260508060341 | 40 | 225 | 0.0 | 0.0 | 0.00 | 0.00 | 0.00 | 95 | 990.5 |
| 20260508055751 | 41 | 225 | 0.0 | 0.0 | 0.00 | 0.00 | 0.00 | 95 | 990.5 |
| 20260508055141 | 41 | 225 | 0.0 | 0.0 | 0.00 | 0.00 | 0.00 | 95 | 990.5 |
| 20260508054544 | 40 | 225 | 0.0 | 0.0 | 0.00 | 0.00 | 0.00 | 95 | 990.5 |
| 20260508052738 | 41 | 225 | 0.0 | 0.0 | 0.00 | 0.00 | 0.00 | 95 | 990.1 |
| 20260508052132 | 41 | 225 | 0.0 | 0.0 | 0.00 | 0.00 | 0.00 | 95 | 990.1 |
| 20260508051526 | 41 | 225 | 0.0 | 0.0 | 0.00 | 0.00 | 0.00 | 95 | 990.1 |
| 20260508050945 | 41 | 225 | 0.0 | 0.0 | 0.00 | 0.00 | 0.00 | 95 | 990.1 |
| 20260508050309 | 41 | 225 | 0.0 | 0.0 | 0.00 | 0.00 | 0.00 | 95 | 990.1 |
| 20260508045724 | 41 | 225 | 0.0 | 0.0 | 0.00 | 0.00 | 0.00 | 95 | 990.1 |
| 20260508045128 | 42 | 225 | 0.0 | 0.0 | 0.00 | 0.00 | 0.00 | 95 | 989.8 |
| 20260508044542 | 42 | 225 | 0.0 | 0.0 | 0.00 | 0.00 | 0.00 | 95 | 989.8 |
| 20260508043936 | 42 | 225 | 0.0 | 0.0 | 0.00 | 0.00 | 0.00 | 94 | 989.8 |
| 20260508043347 | 42 | 225 | 0.0 | 0.0 | 0.00 | 0.00 | 0.00 | 94 | 989.8 |
| 20260508042723 | 42 | 225 | 0.0 | 0.0 | 0.00 | 0.00 | 0.00 | 94 | 989.8 |
| 20260508042141 | 42 | 225 | 0.0 | 0.0 | 0.00 | 0.00 | 0.00 | 94 | 989.8 |
| 20260508041532 | 42 | 225 | 0.0 | 0.0 | 0.00 | 0.00 | 0.00 | 94 | 989.8 |
| 20260508040318 | 43 | 225 | 0.0 | 0.0 | 0.00 | 0.00 | 0.00 | 94 | 989.8 |
| 20260508035120 | 43 | 225 | 0.0 | 0.0 | 0.00 | 0.00 | 0.01 | 94 | 989.8 |
| 20260508034526 | 43 | 225 | 0.0 | 0.0 | 0.00 | 0.00 | 0.01 | 94 | 989.8 |
| 20260508033916 | 43 | 225 | 0.0 | 0.0 | 0.00 | 0.00 | 0.01 | 94 | 989.8 |
| 20260508033321 | 44 | 225 | 0.0 | 0.0 | 0.00 | 0.00 | 0.01 | 94 | 989.5 |
| 20260508032734 | 44 | 225 | 0.0 | 0.0 | 0.00 | 0.00 | 0.01 | 94 | 989.8 |
| 20260508032147 | 44 | 225 | 0.0 | 0.0 | 0.00 | 0.00 | 0.01 | 94 | 989.5 |
| 20260508031526 | 44 | 225 | 0.0 | 0.0 | 0.00 | 0.00 | 0.01 | 94 | 989.8 |
| 20260508030931 | 44 | 225 | 0.0 | 0.0 | 0.00 | 0.00 | 0.01 | 93 | 989.5 |
| 20260508030311 | 44 | 225 | 0.0 | 0.0 | 0.00 | 0.00 | 0.01 | 93 | 989.5 |
| 20260508025719 | 45 | 225 | 0.0 | 1.0 | 0.00 | 0.00 | 0.01 | 93 | 989.5 |
| 20260508025114 | 45 | 225 | 1.0 | 2.0 | 0.00 | 0.00 | 0.01 | 93 | 989.1 |
| 20260508024525 | 45 | 225 | 0.0 | 2.0 | 0.00 | 0.00 | 0.01 | 93 | 989.1 |
| 20260508023946 | 45 | 225 | 2.0 | 2.0 | 0.00 | 0.00 | 0.01 | 93 | 989.1 |
| 20260508023341 | 46 | 225 | 2.0 | 2.0 | 0.00 | 0.00 | 0.01 | 93 | 989.1 |
| 20260508022723 | 46 | 225 | 0.0 | 0.0 | 0.00 | 0.00 | 0.01 | 92 | 988.8 |
| 20260508021515 | 46 | 225 | 0.0 | 1.0 | 0.00 | 0.00 | 0.01 | 92 | 988.4 |
| 20260508020945 | 47 | 225 | 1.0 | 2.0 | 0.00 | 0.00 | 0.01 | 92 | 988.4 |
| 20260508020349 | 47 | 225 | 0.0 | 0.0 | 0.00 | 0.00 | 0.01 | 92 | 988.4 |
| 20260508015738 | 47 | 225 | 0.0 | 1.0 | 0.00 | 0.00 | 0.01 | 91 | 988.1 |
| 20260508015145 | 48 | 225 | 1.0 | 1.0 | 0.00 | 0.00 | 0.01 | 91 | 988.1 |
| 20260508014517 | 48 | 225 | 1.0 | 1.0 | 0.00 | 0.00 | 0.01 | 91 | 988.1 |
| 20260508012725 | 49 | 225 | 1.0 | 3.0 | 0.00 | 0.00 | 0.01 | 89 | 987.8 |
| 20260508011528 | 49 | 225 | 0.0 | 2.0 | 0.00 | 0.00 | 0.01 | 89 | 987.4 |
| 20260508010935 | 50 | 225 | 0.0 | 0.0 | 0.00 | 0.00 | 0.01 | 88 | 987.4 |
| 20260508010349 | 50 | 225 | 0.0 | 0.0 | 0.00 | 0.00 | 0.01 | 87 | 987.4 |
| 20260508005736 | 50 | 225 | 0.0 | 0.0 | 0.00 | 0.00 | 0.01 | 87 | 987.1 |
| 20260508003908 | 52 | 225 | 0.0 | 3.0 | 0.00 | 0.00 | 0.01 | 84 | 987.1 |
| 20260508003340 | 52 | 225 | 0.0 | 3.0 | 0.00 | 0.00 | 0.01 | 83 | 987.1 |
| 20260508002734 | 53 | 224 | 3.0 | 4.0 | 0.00 | 0.00 | 0.01 | 82 | 986.7 |
| 20260508002111 | 54 | 224 | 1.0 | 2.0 | 0.00 | 0.00 | 0.01 | 80 | 986.7 |
| 20260508001532 | 55 | 196 | 1.0 | 2.0 | 0.00 | 0.00 | 0.01 | 79 | 986.7 |
| 20260508000949 | 55 | 196 | 0.0 | 1.0 | 0.00 | 0.00 | 0.01 | 77 | 986.7 |
| 20260508000335 | 56 | 196 | 0.0 | 0.0 | 0.00 | 0.00 | 0.01 | 77 | 986.4 |
| 20260507235747 | 57 | 196 | 2.0 | 2.0 | 0.00 | 0.00 | 0.01 | 73 | 986.4 |
| 20260507235119 | 58 | 158 | 0.0 | 1.0 | 0.00 | 0.00 | 0.01 | 71 | 986.4 |
| 20260507234551 | 59 | 98 | 0.0 | 0.0 | 0.00 | 0.00 | 0.01 | 68 | 986.1 |
| 20260507233938 | 60 | 98 | 0.0 | 0.0 | 0.00 | 0.00 | 0.01 | 65 | 986.1 |
| 20260507233347 | 60 | 103 | 2.0 | 4.0 | 0.00 | 0.00 | 0.01 | 63 | 986.1 |
| 20260507231535 | 62 | 75 | 1.0 | 3.0 | 0.00 | 0.00 | 0.01 | 59 | 986.1 |
| 20260507225744 | 62 | 115 | 2.0 | 5.0 | 0.00 | 0.00 | 0.01 | 62 | 986.1 |
| 20260507225120 | 62 | 91 | 2.0 | 6.0 | 0.00 | 0.00 | 0.01 | 60 | 985.7 |
| 20260507224527 | 62 | 108 | 3.0 | 7.0 | 0.00 | 0.00 | 0.01 | 60 | 986.1 |
| 20260507223918 | 63 | 79 | 5.0 | 8.0 | 0.00 | 0.00 | 0.01 | 54 | 985.7 |
| 20260507223338 | 64 | 129 | 3.0 | 5.0 | 0.00 | 0.00 | 0.01 | 55 | 985.7 |
| 20260507222719 | 64 | 138 | 7.0 | 12.0 | 0.00 | 0.00 | 0.01 | 53 | 985.7 |
| 20260507221516 | 64 | 92 | 2.0 | 5.0 | 0.00 | 0.00 | 0.01 | 55 | 985.7 |
| 20260507220312 | 64 | 137 | 7.0 | 8.0 | 0.00 | 0.00 | 0.01 | 51 | 985.4 |
| 20260507215738 | 65 | 332 | 3.0 | 11.0 | 0.00 | 0.00 | 0.01 | 51 | 985.4 |
| 20260507215144 | 64 | 82 | 2.0 | 3.0 | 0.00 | 0.00 | 0.01 | 56 | 985.4 |
| 20260507213944 | 64 | 96 | 1.0 | 4.0 | 0.00 | 0.00 | 0.01 | 57 | 985.4 |
| 20260507212737 | 65 | 95 | 10.0 | 12.0 | 0.00 | 0.00 | 0.01 | 52 | 985.4 |
| 20260507211532 | 68 | 30 | 1.0 | 4.0 | 0.00 | 0.00 | 0.01 | 55 | 985.1 |
| 20260507210928 | 66 | 89 | 3.0 | 3.0 | 0.00 | 0.00 | 0.01 | 52 | 985.1 |
| 20260507210344 | 65 | 148 | 0.0 | 10.0 | 0.00 | 0.00 | 0.01 | 54 | 985.1 |
| 20260507204547 | 63 | 125 | 6.0 | 11.0 | 0.00 | 0.00 | 0.01 | 57 | 985.4 |
| 20260507202737 | 65 | 77 | 4.0 | 9.0 | 0.00 | 0.00 | 0.01 | 53 | 985.1 |
| 20260507202152 | 66 | 105 | 4.0 | 7.0 | 0.00 | 0.00 | 0.01 | 54 | 985.1 |
| 20260507201538 | 66 | 76 | 0.0 | 2.0 | 0.00 | 0.00 | 0.01 | 55 | 985.4 |
| 20260507200938 | 64 | 110 | 0.0 | 3.0 | 0.00 | 0.00 | 0.01 | 56 | 985.4 |
| 20260507195752 | 65 | 117 | 6.0 | 7.0 | 0.00 | 0.00 | 0.01 | 54 | 985.4 |
| 20260507195151 | 65 | 126 | 0.0 | 6.0 | 0.00 | 0.00 | 0.01 | 57 | 985.4 |
| 20260507194514 | 65 | 233 | 0.0 | 3.0 | 0.00 | 0.00 | 0.01 | 57 | 985.4 |
| 20260507193951 | 63 | 332 | 3.0 | 4.0 | 0.00 | 0.00 | 0.01 | 60 | 985.4 |
| 20260507192732 | 62 | 217 | 0.0 | 8.0 | 0.00 | 0.00 | 0.01 | 59 | 986.1 |
| 20260507192146 | 61 | 96 | 4.0 | 5.0 | 0.00 | 0.00 | 0.01 | 61 | 986.1 |
| 20260507191535 | 61 | 91 | 4.0 | 7.0 | 0.00 | 0.00 | 0.01 | 62 | 986.1 |
| 20260507190936 | 62 | 129 | 3.0 | 6.0 | 0.00 | 0.00 | 0.01 | 61 | 986.1 |
| 20260507185724 | 62 | 126 | 3.0 | 4.0 | 0.00 | 0.00 | 0.01 | 59 | 986.1 |
| 20260507185150 | 62 | 148 | 4.0 | 7.0 | 0.00 | 0.00 | 0.01 | 59 | 986.1 |
| 20260507184549 | 61 | 324 | 2.0 | 9.0 | 0.00 | 0.00 | 0.01 | 58 | 986.4 |
| 20260507183951 | 62 | 74 | 8.0 | 12.0 | 0.00 | 0.00 | 0.01 | 59 | 986.4 |
| 20260507183308 | 62 | 167 | 4.0 | 7.0 | 0.00 | 0.00 | 0.01 | 66 | 986.4 |
| 20260507182714 | 62 | 120 | 5.0 | 6.0 | 0.00 | 0.00 | 0.01 | 64 | 986.4 |
| 20260507182150 | 61 | 310 | 0.0 | 3.0 | 0.00 | 0.00 | 0.01 | 65 | 986.4 |
| 20260507181510 | 61 | 257 | 0.0 | 3.0 | 0.00 | 0.00 | 0.01 | 63 | 986.7 |
| 20260507180928 | 60 | 110 | 5.0 | 8.0 | 0.00 | 0.00 | 0.01 | 63 | 987.1 |
| 20260507180324 | 60 | 100 | 4.0 | 6.0 | 0.00 | 0.00 | 0.01 | 65 | 987.1 |
| 20260507174520 | 60 | 94 | 2.0 | 8.0 | 0.00 | 0.00 | 0.01 | 63 | 986.7 |
| 20260507173945 | 60 | 39 | 3.0 | 5.0 | 0.00 | 0.00 | 0.01 | 64 | 987.1 |
| 20260507172732 | 60 | 96 | 5.0 | 6.0 | 0.00 | 0.00 | 0.01 | 64 | 987.1 |
| 20260507172129 | 59 | 48 | 0.0 | 4.0 | 0.00 | 0.00 | 0.01 | 66 | 987.1 |
| 20260507170911 | 59 | 150 | 0.0 | 1.0 | 0.00 | 0.00 | 0.01 | 67 | 987.1 |
| 20260507170321 | 59 | 78 | 2.0 | 7.0 | 0.00 | 0.00 | 0.01 | 61 | 987.1 |
| 20260507165750 | 60 | 110 | 0.0 | 4.0 | 0.00 | 0.00 | 0.01 | 63 | 987.1 |
| 20260507165135 | 61 | 112 | 2.0 | 4.0 | 0.00 | 0.00 | 0.01 | 64 | 987.1 |
| 20260507163923 | 60 | 220 | 0.0 | 3.0 | 0.00 | 0.00 | 0.01 | 61 | 987.1 |
| 20260507162722 | 59 | 73 | 4.0 | 6.0 | 0.00 | 0.00 | 0.01 | 64 | 987.1 |
| 20260507162152 | 59 | 287 | 0.0 | 12.0 | 0.00 | 0.00 | 0.01 | 61 | 987.4 |
| 20260507161555 | 59 | 72 | 3.0 | 9.0 | 0.00 | 0.00 | 0.01 | 61 | 987.1 |
| 20260507160923 | 59 | 101 | 2.0 | 6.0 | 0.00 | 0.00 | 0.01 | 63 | 987.1 |
| 20260507160346 | 60 | 40 | 0.0 | 4.0 | 0.00 | 0.00 | 0.01 | 65 | 987.4 |
| 20260507155731 | 59 | 255 | 0.0 | 2.0 | 0.00 | 0.00 | 0.01 | 66 | 987.4 |
| 20260507155123 | 58 | 103 | 6.0 | 9.0 | 0.00 | 0.00 | 0.01 | 63 | 987.4 |
| 20260507154519 | 60 | 121 | 3.0 | 5.0 | 0.00 | 0.00 | 0.01 | 65 | 987.4 |
| 20260507153911 | 60 | 215 | 3.0 | 3.0 | 0.00 | 0.00 | 0.01 | 67 | 987.1 |
| 20260507153315 | 59 | 243 | 0.0 | 0.0 | 0.00 | 0.00 | 0.01 | 72 | 987.1 |
| 20260507152750 | 58 | 233 | 1.0 | 5.0 | 0.00 | 0.00 | 0.01 | 74 | 987.1 |
| 20260507151534 | 56 | 218 | 2.0 | 2.0 | 0.00 | 0.00 | 0.01 | 92 | 987.4 |
| 20260507150347 | 54 | 188 | 0.0 | 0.0 | 0.00 | 0.00 | 0.01 | 95 | 987.4 |
| 20260507145715 | 54 | 186 | 0.0 | 0.0 | 0.00 | 0.00 | 0.01 | 95 | 987.4 |
| 20260507145111 | 54 | 253 | 0.0 | 0.0 | 0.00 | 0.00 | 0.01 | 95 | 987.4 |
| 20260507144515 | 54 | 253 | 0.0 | 0.0 | 0.00 | 0.00 | 0.01 | 96 | 987.8 |
| 20260507143939 | 54 | 253 | 0.0 | 0.0 | 0.00 | 0.00 | 0.01 | 96 | 987.8 |
| 20260507143320 | 54 | 253 | 0.0 | 0.0 | 0.00 | 0.00 | 0.01 | 96 | 987.4 |
| 20260507142123 | 52 | 155 | 0.0 | 1.0 | 0.00 | 0.00 | 0.01 | 96 | 987.8 |